User: anonymous   Login
Location: Wellington
(41.3000°S, 174.7830°E)
Time: 00:32:47
(UTC+13:00)
Language:

BREEZE-M DEB (TANK) - Orbit

View from above orbital plane
View from above orbital plane
View from above satellite
View from above satellite

Ground track
Ground track

The orbit data is extracted from the following two-line orbital elements,

1 34712U 09016C   19083.46019782  .00001429  00000-0  17410-3 0  9993
2 34712  46.0549 142.9814 5073096 322.1079  11.2723  5.52097242196020
Epoch (UTC): 24 March 2019 11:02:41
Eccentricity: 0.5073096
inclination: 46.0549°
perigee height: 284 km
apogee height: 14004 km
right ascension of ascending node: 142.9814°
argument of perigee: 322.1079°
revolutions per day: 5.52097242
mean anomaly at epoch: 11.2723°
orbit number at epoch: 19602

The dashed part of the orbit path shows where the satellite is in the earth's shadow,  

DLR